This is the latest recevied weather packets stored in our database for station/object N5PRN. If no packets are shown the sender has not sent any weather packets the latest 10 day(s).
| Time | Temp. | Humidity | Pressure | Rain* | Wind** | Luminosity | Snow |
|---|---|---|---|---|---|---|---|
| 1777642366 | 14.44° C | 96% | 1015.5 hPa | 18.54 mm | - | 13 W/m² | - |
| 1777642063 | 14.44° C | 96% | 1015.1 hPa | 8.89 mm | - | 21 W/m² | - |
| 1777641759 | 14.44° C | 96% | 1015.3 hPa | 4.32 mm | - | 15 W/m² | - |
| 1777641454 | 14.44° C | 96% | 1015.3 hPa | 3.05 mm | - | 10 W/m² | - |
| 1777641150 | 14.44° C | 96% | 1015.2 hPa | 3.05 mm | - | 15 W/m² | - |
| 1777640846 | 15° C | 96% | 1015.4 hPa | 3.05 mm | - | 14 W/m² | - |
| 1777640240 | 14.44° C | 96% | 1015 hPa | 1.78 mm | - | 16 W/m² | - |
| 1777638723 | 14.44° C | 96% | 1014.8 hPa | 0 mm | - | 13 W/m² | - |
| 1777638419 | 14.44° C | 96% | 1014.5 hPa | 0 mm | - | 11 W/m² | - |
| 1777638116 | 14.44° C | 96% | 1014.6 hPa | 0 mm | - | 9 W/m² | - |
| 1777637812 | 14.44° C | 96% | 1014.4 hPa | 0 mm | - | 10 W/m² | - |
| 1777637206 | 14.44° C | 96% | 1014.1 hPa | 0 mm | - | 5 W/m² | - |
| 1777636903 | 14.44° C | 96% | 1014 hPa | 0 mm | - | 5 W/m² | - |
| 1777636598 | 14.44° C | 96% | 1013.9 hPa | 0 mm | - | 4 W/m² | - |
| 1777636295 | 14.44° C | 96% | 1013.7 hPa | 0 mm | - | 3 W/m² | - |
| 1777635990 | 14.44° C | 96% | 1013.5 hPa | 0 mm | - | 1 W/m² | - |
| 1777635686 | 14.44° C | 96% | 1013.6 hPa | 0 mm | - | 1 W/m² | - |
| 1777635382 | 14.44° C | 96% | 1013.6 hPa | 0 mm | - | 0 W/m² | - |
| 1777635079 | 14.44° C | 96% | 1013.6 hPa | 0 mm | - | 0 W/m² | - |
| 1777634775 | 14.44° C | 96% | 1013.5 hPa | 0 mm | - | 0 W/m² | - |
| 1777634473 | 14.44° C | 96% | 1013.4 hPa | 0 mm | - | 0 W/m² | - |
| 1777634169 | 14.44° C | 96% | 1013.4 hPa | 0 mm | - | 0 W/m² | - |
| 1777633866 | 14.44° C | 96% | 1013.1 hPa | 0 mm | - | 0 W/m² | - |
| 1777633564 | 14.44° C | 96% | 1013.3 hPa | 0 mm | - | 0 W/m² | - |
| 1777633261 | 14.44° C | 96% | 1013.1 hPa | 0 mm | - | 0 W/m² | - |
* Rain latest hour (hover to see other rain measurements)
** Current wind speed in m/s (hover to see current wind gust speed)